Probability
0 0 0 0 0 0 0 0 0 0 0 0 0 0 0 0 0 0 0 0 0 1 2 3 1 0 0 1 2 3 2 1 0 0 0 1 2 1 0 0 0 1 1
0 0 0 0 0 0 0 0 0 0 0 0 0 0 0 0 0 0 0 0 0 1 2 3 2 1 0 1 2 3 1 0 0 0 0 1 2 1 0 0 0 0 1
1 0 0 0 0 0 0 0 0 0 0 0 0 0 0 0 0 0 0 0 1 1 3 3 2 1 0 1 2 2 1 0 0 0 0 1 2 1 0 0 0 0 0
1 1 0 0 0 0 0 0 0 0 0 0 0 0 0 0 0 0 0 1 2 3 3 2 1 0 0 1 2 2 1 0 0 0 0 0 1 1 0 0 0 0 0
1 1 0 0 0 0 0 0 0 0 0 0 0 0 0 0 0 0 0 1 2 3 2 1 0 0 0 0 1 1 0 0 0 0 0 0 0 0 0 0 0 0 0
0 0 0 0 0 0 0 0 0 0 0 0 0 0 0 0 0 0 0 1 2 2 1 0 0 0 0 0 0 0 0 0 0 0 0 0 0 0 0 0 0 0 0
0 0 0 0 0 0 0 0 0 0 0 0 0 0 0 0 0 0 0 1 1 1 0 0 0 0 0 0 0 0 0 0 0 0 0 0 0 0 0 0 0 0 0
0 0 0 0 0 0 0 0 0 0 0 0 0 0 0 0 0 0 0 0 0 0 0 0 0 0 0 0 0 0 0 0 0 0 0 0 0 0 0 0 0 0 0
0 0 0 0 0 0 0 0 0 0 0 0 0 0 0 0 0 0 0 0 0 0 0 0 0 0 0 0 0 0 0 0 0 1 0 0 0 1 1 0 0 0 0
0 0 0 0 0 0 0 0 0 0 0 0 0 0 0 0 0 0 0 0 0 0 0 0 0 0 0 0 0 0 0 0 0 0 0 0 0 1 1 0 0 0 0
0 0 0 0 0 0 0 0 0 0 0 0 0 0 0 0 0 0 0 0 0 0 0 0 0 0 0 0 0 0 0 0 0 0 0 0 0 0 0 0 0 0 0
0 0 0 0 0 0 0 0 0 0 0 0 0 0 0 0 0 0 0 0 0 0 0 0 0 0 0 0 0 0 0 0 0 0 0 0 0 0 0 0 0 0 0
0 0 0 0 0 0 0 0 0 0 0 0 0 0 0 0 0 0 0 0 0 0 0 0 0 0 0 0 0 0 0 0 0 0 0 0 0 0 0 0 0 0 0
0 0 0 0 0 0 0 0 0 0 0 0 0 0 0 0 0 0 0 0 0 0 0 0 0 0 0 0 0 0 0 0 0 0 0 0 0 0 0 0 0 0 0
0 0 0 0 0 0 0 0 0 0 0 0 0 0 0 0 0 0 0 0 0 0 0 0 0 0 0 0 0 0 0 0 0 0 0 0 0 0 0 0 0 0 0
0 0 0 0 0 0 0 0 0 0 0 0 0 0 0 0 0 0 0 0 0 0 0 0 0 0 0 0 0 0 0 0 0 0 0 0 0 0 0 0 0 0 0
0 0 0 0 0 0 0 0 0 0 0 0 0 0 0 0 0 0 0 0 0 0 0 0 0 0 0 0 0 0 0 0 0 0 0 0 0 0 0 0 0 0 0
0 0 0 0 0 0 0 0 0 0 0 0 0 0 0 0 0 0 0 0 0 0 0 0 0 0 0 0 0 0 0 0 0 0 0 0 0 0 0 0 0 0 0
0 0 0 0 0 0 0 0 0 0 0 0 0 0 0 0 0 0 0 0 0 0 0 0 0 0 0 0 0 0 0 0 0 0 0 0 0 0 0 0 0 0 0
0 0 0 0 0 0 0 0 0 0 0 0 0 0 0 0 0 0 0 0 0 0 0 0 0 0 0 0 0 0 0 0 0 0 0 0 0 0 0 0 0 0 0
0 0 0 0 0 0 0 0 0 0 0 0 0 0 0 0 0 0 0 0 0 0 0 0 0 0 0 0 0 0 0 0 0 0 0 0 0 0 0 0 0 0 0
0 0 0 0 0 0 0 0 0 0 0 0 0 0 0 0 0 0 0 0 0 0 0 0 0 0 0 0 0 0 0 0 0 0 0 0 0 0 0 0 0 0 0
0 0 0 0 0 0 0 0 0 0 0 0 0 0 0 0 0 0 0 0 0 0 0 0 0 0 0 0 0 0 0 0 0 0 0 0 0 0 0 0 0 0 0
0 0 0 0 0 0 0 0 0 0 0 0 0 0 0 0 0 0 0 0 0 0 0 0 0 0 0 0 0 0 0 0 0 0 0 0 0 0 0 0 0 0 0
0 0 0 0 0 0 0 0 0 0 0 0 0 0 0 0 0 0 0 0 0 0 0 0 0 0 0 0 0 0 0 0 0 0 0 0 0 0 0 0 0 0 0
0 0 0 0 0 0 0 0 0 0 0 0 0 0 0 0 0 0 0 0 0 0 0 0 0 0 0 0 0 0 0 0 0 0 0 0 0 0 0 0 0 0 0
Wind_Speed
2 1 1 1 1 1 1 1 1 1 1 1 1 2 2 2 2 1 1 1 2 2 2 2 2 3 2 2 2 2 2 2 2 3 3 3 3 3 3 4 4 5 5
2 2 1 1 1 1 1 1 1 2 2 2 2 2 2 2 2 2 1 1 2 2 3 3 3 3 3 3 2 2 2 2 3 3 4 4 4 4 4 4 4 5 5
2 2 2 2 1 1 1 1 0 0 1 1 2 2 2 2 2 2 2 1 1 2 2 3 3 4 4 5 4 3 3 3 3 4 4 5 5 4 5 5 5 5 5
2 2 2 2 1 1 1 1 1 0 1 1 2 2 2 1 2 2 2 1 1 1 1 2 4 4 5 5 5 4 4 4 4 5 5 6 5 5 5 5 6 6 6
2 2 2 1 1 1 1 1 1 1 1 1 1 2 2 2 2 2 2 2 2 1 1 2 3 4 5 6 6 5 5 5 5 6 6 7 6 6 6 6 7 7 7
2 2 1 1 1 1 1 0 1 1 1 1 1 2 2 2 1 2 2 2 2 2 2 1 1 3 5 6 6 6 6 6 6 6 7 8 7 7 7 7 7 7 8
2 2 1 1 1 2 2 2 1 0 0 0 0 1 2 2 2 2 2 2 2 2 1 2 1 1 2 5 6 7 7 8 8 8 8 8 8 8 8 8 8 8 8
2 2 2 2 2 1 1 1 1 1 1 1 1 1 1 2 2 2 2 2 2 1 1 2 2 2 1 1 4 7 8 8 9 9 9 9 9 9 9 8 8 8 9
2 2 2 2 2 2 2 2 2 2 2 2 1 2 2 3 2 2 2 2 2 2 2 2 2 2 2 2 2 6 8 9 10 10 10 10 10 10 9 9 9 9 9
2 2 2 2 2 2 2 2 2 2 3 2 1 1 2 2 2 2 2 2 2 3 3 3 3 3 3 2 3 6 8 9 10 11 11 11 11 10 10 10 10 10 10
2 2 2 2 2 2 2 2 2 2 2 3 2 1 1 1 1 2 3 3 2 3 3 3 3 3 3 3 3 5 8 9 10 10 10 11 11 10 10 11 11 11 11
2 2 2 2 2 2 2 3 3 3 2 3 3 2 2 2 3 3 4 3 4 3 3 2 3 3 3 3 4 7 8 9 10 10 9 9 10 10 11 11 11 11 12
2 3 2 3 2 2 2 2 2 3 3 3 3 3 3 3 2 3 3 3 3 3 2 2 3 3 2 2 3 6 7 8 9 9 9 9 9 10 10 11 11 12 12
3 3 3 3 3 3 2 2 2 2 2 3 3 3 3 3 3 3 3 2 2 3 3 4 2 2 2 2 4 6 4 7 8 9 9 9 10 10 10 11 11 11 12
2 2 2 3 3 2 2 2 2 3 2 3 3 3 2 2 2 2 2 3 3 3 5 3 2 2 2 2 4 3 3 7 8 9 9 10 10 10 10 11 11 11 11
1 2 2 2 2 2 2 2 2 2 2 3 2 3 3 2 2 2 2 2 3 4 5 3 3 3 3 3 5 4 4 8 8 9 9 9 10 10 10 11 11 11 11
2 2 3 3 3 2 2 2 3 3 3 3 2 3 3 3 2 2 2 2 3 3 5 4 3 3 3 3 4 3 3 4 4 8 9 10 10 10 10 11 11 11 11
2 2 3 3 3 3 3 4 4 4 4 4 3 3 3 2 3 2 2 3 3 3 4 5 4 3 4 4 4 4 4 3 4 7 9 9 10 10 10 10 10 10 10
2 2 2 3 3 3 4 4 4 4 4 4 4 4 4 3 3 3 3 3 3 3 3 3 4 3 3 3 3 4 4 3 4 5 7 9 9 10 10 10 10 10 9
2 2 3 3 3 3 4 3 3 3 3 3 3 4 4 4 4 4 4 4 3 3 2 3 3 3 3 3 2 3 4 3 4 3 5 6 7 8 9 9 9 9 9
2 2 2 3 3 3 3 3 3 3 3 3 3 3 4 5 5 5 4 4 3 3 3 3 3 2 3 2 3 3 4 4 4 2 3 3 4 3 4 7 7 8 9
2 2 3 3 3 3 5 5 4 4 4 4 4 4 4 4 6 7 7 6 5 5 5 4 3 4 4 4 3 3 3 3 4 2 2 4 2 3 3 3 7 9 9
2 2 3 3 4 5 6 6 5 4 4 4 4 4 3 4 4 4 5 5 5 6 7 5 5 5 5 4 3 3 3 4 5 3 2 4 2 4 3 4 8 9 9
2 3 3 3 4 5 6 6 5 3 4 4 4 5 5 5 5 4 4 4 5 5 6 4 5 5 4 3 4 4 4 4 4 2 2 3 3 3 3 4 7 8 8
3 3 3 3 4 5 6 6 4 3 3 4 4 4 5 5 7 6 4 5 5 5 5 5 6 5 5 4 3 1 1 1 3 3 1 2 2 3 3 3 5 8 9
3 3 3 3 4 4 6 6 4 2 3 3 4 4 6 7 8 7 5 5 6 5 3 3 3 4 3 3 3 3 3 3 2 3 2 1 2 2 3 3 2 3 5
Wind_Direction
176 175 177 165 157 153 162 212 212 206 209 209 204 194 208 219 215 219 262 288 287 280 272 279 276 274 288 277 285 291 300 308 319 312 314 303 302 304 310 313 309 313 317
177 179 183 184 176 182 190 204 232 218 223 217 215 207 209 211 216 218 217 263 291 295 288 282 285 282 282 278 274 283 282 298 306 304 308 299 290 288 297 304 305 307 315
177 179 187 199 201 195 185 164 255 271 254 237 229 225 221 210 214 222 222 225 249 300 307 297 290 289 286 283 274 275 284 292 304 301 293 298 291 290 291 296 300 304 307
174 177 187 209 202 172 173 168 169 238 258 266 271 256 235 212 220 225 222 217 217 239 302 313 311 298 295 287 280 278 281 288 297 299 288 290 286 290 291 287 290 294 297
174 180 191 205 179 164 186 196 223 212 240 242 259 275 258 231 226 227 220 216 216 207 219 285 304 307 302 294 283 283 282 280 286 296 288 288 279 283 286 285 286 287 289
184 182 187 192 167 163 193 196 235 272 232 231 268 290 276 251 227 212 228 233 224 222 230 236 265 295 293 299 289 284 285 283 282 286 286 285 275 277 278 279 279 284 288
189 176 180 183 184 199 208 189 187 229 254 187 55 317 306 273 238 232 230 230 234 235 227 231 240 261 285 291 293 286 284 285 284 286 285 283 274 273 274 277 278 282 285
205 189 184 190 197 210 205 201 177 184 246 192 157 169 294 302 280 247 229 228 237 238 242 247 235 241 264 279 290 289 285 283 286 287 285 280 271 270 271 273 277 279 280
201 199 193 189 202 207 215 215 199 187 218 248 204 180 193 234 284 281 245 238 238 239 246 248 241 243 249 253 271 285 289 288 287 286 285 281 272 272 271 272 276 277 278
209 199 195 196 200 213 226 232 226 211 194 219 245 237 227 195 198 278 292 266 246 246 242 244 249 245 239 240 258 272 282 286 286 286 287 282 274 273 272 273 274 274 275
217 206 199 200 208 215 223 232 240 228 214 211 209 210 220 240 208 208 264 283 280 252 239 234 235 240 242 239 245 262 274 279 284 285 286 283 277 276 279 279 276 276 277
236 214 207 207 212 215 221 228 226 225 236 231 221 208 203 203 213 210 232 259 272 275 258 242 231 237 242 243 253 268 272 278 282 282 280 284 282 281 282 283 281 280 279
242 220 217 213 217 221 223 224 225 231 232 236 236 233 227 228 215 221 224 250 272 284 277 254 234 241 252 249 260 276 277 282 282 281 282 283 285 283 282 283 281 281 282
233 225 222 222 223 217 219 218 232 242 241 238 243 243 243 242 230 226 216 210 267 287 272 265 264 240 244 252 272 279 280 283 285 283 285 285 284 285 284 283 281 282 282
236 222 226 227 224 217 215 215 233 242 239 243 245 245 254 258 246 240 232 209 203 243 265 263 265 267 264 272 281 275 273 281 286 285 285 286 287 285 285 284 282 281 281
230 214 225 226 226 225 218 219 235 238 240 248 252 247 256 268 262 249 241 233 221 224 249 252 257 277 276 281 285 279 274 285 283 285 286 286 287 288 285 284 281 281 281
244 221 220 223 220 222 220 220 235 232 236 250 253 248 257 257 256 252 249 243 234 227 248 272 277 280 275 277 290 283 279 273 278 284 285 286 286 286 286 284 285 284 283
252 250 232 226 224 224 225 223 229 235 233 238 245 246 253 252 250 255 246 246 238 231 234 260 281 285 280 273 277 281 287 284 278 285 288 290 288 285 284 285 285 286 286
268 266 256 237 230 227 230 234 230 235 236 237 237 237 246 243 249 254 251 250 249 242 238 244 268 280 292 301 302 299 296 291 289 288 289 291 291 286 284 285 287 287 286
262 256 255 254 246 237 234 236 237 237 237 241 241 239 240 237 242 244 245 248 253 245 244 249 264 282 289 302 301 300 303 302 298 300 296 295 291 290 283 283 285 285 284
274 265 260 261 258 248 237 232 234 236 236 245 251 248 247 249 251 252 249 243 237 241 238 245 258 277 280 296 283 287 284 302 290 282 300 299 296 292 283 281 283 285 285
291 283 266 258 257 257 258 249 246 235 237 238 249 257 257 252 258 260 260 254 241 235 234 231 246 251 260 267 277 281 283 300 287 287 296 290 285 281 284 277 287 286 287
289 280 272 264 260 262 262 259 258 246 240 239 240 245 252 256 255 257 258 261 258 261 245 225 234 247 250 249 255 267 264 264 266 287 295 279 285 281 290 290 293 289 291
277 271 272 271 271 272 270 266 264 255 246 243 239 237 243 250 248 254 246 251 256 259 256 242 238 248 253 251 238 241 251 273 292 283 264 264 275 276 292 288 283 287 298
283 276 274 273 273 279 277 274 268 250 251 251 246 242 244 247 251 252 242 244 257 264 268 261 266 268 268 266 257 233 251 279 282 274 259 261 282 298 294 278 280 290 297
281 281 279 275 272 279 281 281 276 255 255 261 259 250 249 254 256 247 237 235 248 259 262 266 273 281 275 260 242 213 208 225 256 265 249 252 276 317 298 288 294 295 293